Regional Weather Roundup
Issued by NWS

Home | Current Version | Previous Version | Graphics & Text | Print | Product List | Glossary On
Versions: 1 2 3 4 5 6 7 8 9 10 11 12 13 14 15 16 17 18 19 20 21 22 23 24 25 26 27
000
ASUS45 KSLC 291010
RWRUT

UTAH REGIONAL WEATHER ROUNDUP
NATIONAL WEATHER SERVICE SALT LAKE CITY UT
400 AM MDT WED MAR 29 2017

UTZ001>011-023>025-291100-

NORTHERN UTAH

CITY           SKY/WX    TMP DP  RH WIND       PRES   REMARKS
BRIGHAM CITY     N/A     36  29  76 CALM      30.23S
HILL AFB       CLEAR     36  26  66 E14       30.21F WCI  27
LOGAN          CLEAR     34  28  79 CALM      30.24F
OGDEN          CLEAR     33  28  81 S7        30.21F WCI  27
SALT LAKE CITY CLEAR     38  33  82 CALM      30.22F
TOOELE VALLEY  CLEAR     32  30  93 S8        30.24F WCI  25
WENDOVER       CLEAR     40  27  59 S5        30.25S
HEBER CITY     PTCLDY    28  25  86 CALM      30.22S
WEST JORDAN    CLEAR     40  36  86 NW6       30.24S

$$

UTZ011>015-024>027-291100-

CENTRAL/NORTHEAST UTAH

CITY           SKY/WX    TMP DP  RH WIND       PRES   REMARKS
PROVO AIRPORT  PTCLDY    34  30  85 S7        30.24S WCI  28
MOAB/CANYONLAN CLEAR     37  30  75 CALM      30.07R
DELTA          CLEAR     30  28  93 E7        30.24S WCI  23
PRICE          CLEAR     40  23  50 NW14G25   30.12R WCI  32
ROOSEVELT      CLEAR     34  30  86 W3        30.15S
VERNAL         CLEAR     33  27  78 N6        30.13R WCI  28

$$

UTZ013>016-019>022-027-291100-

SOUTHERN UTAH

CITY           SKY/WX    TMP DP  RH WIND       PRES   REMARKS
BRYCE CANYON   CLEAR     27  21  78 NW6       30.17F WCI  20
CEDAR CITY     CLEAR     27  23  85 NW3       30.20F
MILFORD        CLEAR     32  26  78 CALM      30.23S
ST GEORGE      MOSUNNY   46  27  47 CALM      30.13F
HANKSVILLE     CLEAR     43  23  45 NW7       30.12S
BLANDING       CLEAR     42  27  55 NW14G24   30.07R

$$

REGIONAL REPORTS     COLORADO/ARIZONA

CITY           SKY/WX    TMP DP  RH WIND       PRES   REMARKS
CRAIG, CO      CLEAR     30  25  81 S5        30.13R WCI  25
GRAND JUNCTION CLEAR     37  31  78 CALM      30.07R
RIFLE, CO      CLOUDY    35  32  88 VRB3      30.08R
MONTROSE, CO   PTCLDY    38  30  73 N5        30.05R WCI  34
CORTEZ, CO     CLOUDY    40  30  67 S5        29.96R
COLORADO CITY    N/A     30  27  86 SE3       30.17S
PAGE, AZ       CLEAR     49  25  39 W9G23     30.06S
GRAND CANYON   CLEAR     33  22  63 NW7       30.11F WCI  27
KINGMAN, AZ    CLEAR     43  14  31 E13       30.09F
FLAGSTAFF, AZ  CLEAR     37  21  52 VRB3      30.07S

$$

REGIONAL REPORTS    NEVADA/IDAHO/WYOMING

CITY           SKY/WX    TMP DP  RH WIND       PRES   REMARKS
LAS VEGAS, NV  PTCLDY    58  25  28 N7        30.11S
ELY, NY        CLEAR     24  21  88 SE3       30.26F
ELKO, NV       CLEAR     29  26  89 CALM      30.26F
POCATELLO, ID  CLEAR     39  29  67 SW12      30.23S WCI  32
BURLEY, ID     CLEAR     34  26  72 SW9       30.22S WCI  27
FORT BRIDGER,    N/A     29  27  90 SW9       30.24S WCI  21
EVANSTON, WY   CLOUDY    26  20  77 SW6       30.21F WCI  19
ROCK SPRINGS,  CLEAR     28  23  81 SW9       30.17S WCI  19
KEMMERER, WY     N/A     28  23  80 W14       30.19F WCI  17

$$




USA.gov is the U.S. government's official web portal to all federal, state and local government web resources and services.